"Pseudo-MPEC" for P222qKn

Created 2024 Dec 2 8:31:32 UT using Find_Orb

Click here for an explanation of pseudo-MPECs

 
 Astrometry: 
     P222qKn* C2024 11 27.56940608 13 10.363-08 18 34.44   ~BRFl 22.01wXNEOCPF52
     P222qKn  C2024 11 27.58152408 13 10.607-08 18 27.71   ~BRFl 21.88wXNEOCPF52
     P222qKn  C2024 11 27.59367608 13 10.877-08 18 21.11   ~BRFl 21.56wXNEOCPF52
     P222qKn  C2024 11 27.60581408 13 11.122-08 18 14.16   ~BRFl 22.11wXNEOCPF52
     P222qKn 7C2024 11 28.13299708 13 24.204-08 13 21.61   ~BS92 21.5 GVNEOCPZ84
     P222qKn 7C2024 11 28.15665908 13 24.687-08 13 08.13   ~BS92 21.6 GVNEOCPZ84
     P222qKn 7C2024 11 28.17950208 13 25.130-08 12 55.26   ~BS92 21.4 GVNEOCPZ84

Station data:
(F52) Pan-STARRS 2, Haleakala  (N20.707382 W156.255910)  US/Hawaii.
   Observers J. Bulger, T. Dukes, T. Lowe, A. Schultz, M. Willman. Measurers
   K. Chambers, S. Chastel, T. de Boer, L. Denneau, J. Fairlamb, H.
   Flewelling, M. Huber, C.-C. Lin, E. Magnier, Y. Ramanjooloo, R. Wainscoat,
   R. Weryk. 1.8-m Ritchey-Chrétien + CCD.
(Z84) Calar Alto-Schmidt  (N37.224006 W2.548160)  Spain.  Observer F. Ocaña.
   Measurers E. Schwab, D. Koschny, M. Micheli. 0.8-m f/3 Schmidt + CCD.

Orbital elements:  P222qKn
   Perihelion 2024 Sep 21.49981 +/- 96.4 TT = 11:59:43 (JD 2460574.99981)
Epoch 2024 Nov 28.0 TT = JDT 2460642.5   Earth MOID: 0.6677      AutoNEOCP
M  20.73265120 +/- 47               (J2000 ecliptic)
n   0.30714950 +/- 0.178            Peri.  284.57570 +/- 100
a   2.17555217 +/- 0.842            Node   124.25869 +/- 10
e   0.3217035 +/- 0.198             Incl.   26.96246 +/- 13
P   3.20889                H 19.64  G  0.15   U 11.6  SR
q 1.47566939 +/- 0.363    Q 2.87543495 +/- 1.79
From 7 observations 2024 Nov. 27-28 (14.6 hr); mean residual 0".10
Residuals in arcseconds: 
241127 F52  .11+  .07-    241127 F52  .11-  .16+    241128 Z84  .19-  .07-    
241127 F52  .10-  .00     241128 Z84  .11+  .01-    
241127 F52  .08+  .09-    241128 Z84  .12+  .05+    

Ephemerides (geocentric):
Date (UTC) HH   RA             Dec           delta  r     elong  mag " sig PA
---- --------  ------------   ------------  ------ ------ -----  --- --------
2024 12 02 09  08 14 41.048   -07 28 19.65  .85027 1.5806 118.6 21.7  112 154
2024 12 02 10  08 14 41.564   -07 27 50.23  .85004 1.5807 118.7 21.7  114 154
2024 12 02 11  08 14 42.074   -07 27 20.75  .84980 1.5808 118.7 21.7  116 154
2024 12 02 12  08 14 42.580   -07 26 51.22  .84957 1.5810 118.7 21.7  119 155
2024 12 02 13  08 14 43.082   -07 26 21.62  .84934 1.5811 118.8 21.7  121 155
2024 12 02 14  08 14 43.578   -07 25 51.97  .84911 1.5812 118.8 21.7  123 155
2024 12 02 15  08 14 44.070   -07 25 22.25  .84888 1.5813 118.9 21.7  126 155
2024 12 02 16  08 14 44.557   -07 24 52.48  .84864 1.5814 118.9 21.7  128 155
2024 12 02 17  08 14 45.040   -07 24 22.64  .84841 1.5815 118.9 21.7  131 155
2024 12 02 18  08 14 45.518   -07 23 52.75  .84818 1.5816 119.0 21.7  133 155
2024 12 02 19  08 14 45.991   -07 23 22.80  .84795 1.5818 119.0 21.7  135 155
2024 12 02 20  08 14 46.459   -07 22 52.78  .84772 1.5819 119.1 21.7  138 155
2024 12 02 21  08 14 46.922   -07 22 22.71  .84749 1.5820 119.1 21.7  140 155
2024 12 02 22  08 14 47.381   -07 21 52.58  .84726 1.5821 119.1 21.7  143 155
2024 12 02 23  08 14 47.835   -07 21 22.38  .84702 1.5822 119.2 21.7  146 156
2024 12 03 00  08 14 48.285   -07 20 52.13  .84679 1.5823 119.2 21.7  148 156
2024 12 03 01  08 14 48.729   -07 20 21.82  .84656 1.5824 119.3 21.7  151 156
2024 12 03 02  08 14 49.169   -07 19 51.45  .84633 1.5826 119.3 21.7  154 156
2024 12 03 03  08 14 49.604   -07 19 21.01  .84610 1.5827 119.3 21.7  156 156
2024 12 03 04  08 14 50.035   -07 18 50.52  .84587 1.5828 119.4 21.7  159 156
2024 12 03 05  08 14 50.460   -07 18 19.97  .84564 1.5829 119.4 21.7  162 156
2024 12 03 06  08 14 50.881   -07 17 49.35  .84541 1.5830 119.5 21.7  164 156
2024 12 03 07  08 14 51.297   -07 17 18.68  .84518 1.5831 119.5 21.7  167 156
2024 12 03 08  08 14 51.709   -07 16 47.94  .84495 1.5832 119.5 21.7  170 156
2024 12 03 09  08 14 52.116   -07 16 17.15  .84472 1.5834 119.6 21.7  173 157
2024 12 03 10  08 14 52.518   -07 15 46.29  .84449 1.5835 119.6 21.6  176 157
2024 12 03 11  08 14 52.915   -07 15 15.37  .84426 1.5836 119.6 21.6  179 157
2024 12 03 12  08 14 53.307   -07 14 44.40  .84403 1.5837 119.7 21.6  182 157
2024 12 03 13  08 14 53.695   -07 14 13.36  .84380 1.5838 119.7 21.6  185 157
2024 12 03 14  08 14 54.078   -07 13 42.26  .84357 1.5839 119.8 21.6  188 157
2024 12 03 15  08 14 54.456   -07 13 11.10  .84334 1.5840 119.8 21.6  191 157
2024 12 03 16  08 14 54.830   -07 12 39.88  .84311 1.5842 119.8 21.6  194 157
2024 12 03 17  08 14 55.198   -07 12 08.60  .84288 1.5843 119.9 21.6  197 157
2024 12 03 18  08 14 55.562   -07 11 37.25  .84266 1.5844 119.9 21.6  200 157
2024 12 03 19  08 14 55.922   -07 11 05.85  .84243 1.5845 120.0 21.6  203 158
2024 12 03 20  08 14 56.276   -07 10 34.39  .84220 1.5846 120.0 21.6  206 158
2024 12 03 21  08 14 56.626   -07 10 02.86  .84197 1.5847 120.0 21.6  209 158
2024 12 03 22  08 14 56.971   -07 09 31.27  .84174 1.5848 120.1 21.6  213 158
2024 12 03 23  08 14 57.311   -07 08 59.63  .84151 1.5850 120.1 21.6  216 158
2024 12 04 00  08 14 57.647   -07 08 27.92  .84128 1.5851 120.2 21.6  219 158
2024 12 04 01  08 14 57.978   -07 07 56.15  .84106 1.5852 120.2 21.6  223 158
2024 12 04 02  08 14 58.304   -07 07 24.31  .84083 1.5853 120.2 21.6  226 158
2024 12 04 03  08 14 58.625   -07 06 52.42  .84060 1.5854 120.3 21.6  229 158
2024 12 04 04  08 14 58.941   -07 06 20.46  .84037 1.5855 120.3 21.6  233 158
2024 12 04 05  08 14 59.253   -07 05 48.45  .84014 1.5857 120.4 21.6  236 159
2024 12 04 06  08 14 59.560   -07 05 16.37  .83992 1.5858 120.4 21.6  240 159
2024 12 04 07  08 14 59.862   -07 04 44.23  .83969 1.5859 120.4 21.6  243 159
2024 12 04 08  08 15 00.160   -07 04 12.03  .83946 1.5860 120.5 21.6  247 159